Weather in Beloborodovo

Russia / Novosibirsk Oblast     55°03′50″N   82°03′03″E
temp.,
°C
wind,
m/s
gust,
m/s
humid.,
%
clouds,
%
prec.,
mm/h
press.,
hPa
HPBL,
m
5 march, fri
fri501:00−7ssw81789100 0.0 1013459
04:00−7s71687100 0.0 1011449
07:00−7s71485100 0.0 1010528
10:00−8ssw81590100 0.1 1009621
13:00−3sw101689100 0.3 10101126
16:00−4wsw111583100 0.3 10131129
19:00−6sw81685100 0.3 1016783
22:00−5sw101792100 0.6 10161143
6 march, sat
sat601:00−5sw91692100 1.0 1016941
04:00−5sw91693100 0.9 1015883
07:00−6sw101691100 1.6 1015774
10:00−7sw101788100 0.3 1014805
13:00−6sw101689100 0.4 1013928
16:00−4sw101692100 0.4 10111046
19:00−4sw91592100 0.9 1011942
22:00−3sw91790100 0.3 1010832
7 march, sun
sun701:00−3sw8149399 0.5 1011739
04:00−3w61195100 0.6 1012561
07:00−10w4109098 0.8 1015231
10:00−12wsw489067 0.0 1017204
13:00−8wsw478383 0.0 1019347
16:00−6sw4779100 0.0 1019489
19:00−9s238288 0.0 101921
22:00−5sse5119567 0.0 1018326
8 march, mon
mon801:00−2ssw7139183 0.1 1016822
04:00−3ssw81491100 0.0 1013613
07:00−5ssw71491100 0.0 1013415
10:00−4ssw81490100 0.0 1012434
13:00−1ssw81587100 0.0 1010611
16:00−1ssw81384100 0.0 1008621
19:00−3ssw71386100 0.0 1007616
22:00−2sw71490100 0.0 1007741
9 march, tue
tue901:00−1wsw61197100 0.6 1009599
04:00−7wnw6129390 0.4 1013415
07:00−13w5109593 0.4 1019201
10:00−13wsw5109470 0.0 1024294
13:00−10wsw5108554 0.0 1026470
16:00−7sw598275 0.0 1026631
19:00−9s5108878 0.0 1025274
22:00−11ssw61390100 0.0 1024291